DW7358 Weather Reports


Display with metric or nautical units.
time (UTC)temp
F
wind
direction
speed
MPH
gust
MPH
rain 1hr
in
rain 24hr
in
rain mn
in
humidity
%
barometer
mb
20260504050546 57 259 3.0 10.0 0.00 0.00 0.00 66 1005.9
20260504045544 57 229 2.0 8.0 0.00 0.00 0.00 66 1005.9
20260504045047 58 239 4.0 8.0 0.00 0.00 0.00 66 1006.0
20260504044552 57 227 3.0 8.0 0.00 0.00 0.00 66 1005.9
20260504044048 58 234 3.0 7.0 0.00 0.00 0.00 66 1005.9
20260504043547 57 224 3.0 6.0 0.00 0.00 0.00 66 1006.0
20260504043101 58 246 2.0 6.0 0.00 0.00 0.00 66 1006.0
20260504042546 58 224 3.0 6.0 0.00 0.00 0.00 66 1006.0
20260504042045 58 229 2.0 6.0 0.00 0.00 0.00 66 1005.9
20260504041549 58 240 1.0 5.0 0.00 0.00 0.00 66 1006.0
20260504041046 58 232 2.0 4.0 0.00 0.00 0.00 66 1005.9
20260504040549 58 234 2.0 4.0 0.00 0.00 0.00 65 1006.0
20260504040110 58 234 2.0 4.0 0.00 0.00 0.00 65 1006.0
20260504035550 58 232 2.0 5.0 0.00 0.00 0.00 65 1006.0
20260504035047 59 232 1.0 5.0 0.00 0.00 0.00 65 1006.0
20260504034550 59 232 2.0 5.0 0.00 0.00 0.00 64 1006.0
20260504034046 59 220 1.0 4.0 0.00 0.00 0.00 64 1006.1
20260504033547 59 229 1.0 4.0 0.00 0.00 0.00 64 1006.2
20260504033054 59 232 1.0 4.0 0.00 0.00 0.00 64 1006.2
20260504032548 59 229 2.0 4.0 0.00 0.00 0.00 64 1006.2
20260504032048 59 232 1.0 4.0 0.00 0.00 0.00 63 1006.2
20260504031556 60 230 2.0 5.0 0.00 0.00 0.00 63 1006.2
20260504031046 60 226 2.0 6.0 0.00 0.00 0.00 63 1006.3
20260504030544 60 224 2.0 6.0 0.00 0.00 0.00 62 1006.3
20260504030054 60 222 2.0 4.0 0.00 0.00 0.00 62 1006.3
20260504025544 60 228 2.0 4.0 0.00 0.00 0.00 62 1006.4
20260504025048 60 232 2.0 4.0 0.00 0.00 0.00 61 1006.5
20260504024550 60 236 2.0 5.0 0.00 0.00 0.00 61 1006.4
20260504024047 61 244 1.0 5.0 0.00 0.00 0.00 60 1006.3
20260504023548 61 240 1.0 5.0 0.00 0.00 0.00 60 1006.3
20260504023102 61 0 2.0 4.0 0.00 0.00 0.00 60 1006.3
20260504022550 61 222 1.0 4.0 0.00 0.00 0.00 59 1006.3
20260504022045 61 232 1.0 5.0 0.00 0.00 0.00 59 1006.1
20260504021552 62 233 2.0 5.0 0.00 0.00 0.00 58 1006.2
20260504021046 62 236 2.0 5.0 0.00 0.00 0.00 58 1006.2
20260504020544 62 232 2.0 4.0 0.00 0.00 0.00 58 1006.1
20260504020051 62 224 1.0 4.0 0.00 0.00 0.00 57 1006.1
20260504015544 62 234 2.0 4.0 0.00 0.00 0.00 57 1006.1
20260504015048 62 232 1.0 5.0 0.00 0.00 0.00 57 1006.1
20260504014601 63 0 2.0 5.0 0.00 0.00 0.00 56 1006.1
20260504014046 63 236 2.0 6.0 0.00 0.00 0.00 56 1006.0
20260504013548 63 244 1.0 6.0 0.00 0.00 0.00 55 1006.0
20260504013051 63 238 2.0 6.0 0.00 0.00 0.00 55 1005.9
20260504012542 63 232 2.0 4.0 0.00 0.00 0.00 54 1005.9
20260504012043 64 231 2.0 4.0 0.00 0.00 0.00 54 1005.9
20260504011549 64 232 1.0 3.0 0.00 0.00 0.00 54 1005.7
20260504011041 64 232 1.0 3.0 0.00 0.00 0.00 53 1005.6
20260504010541 64 233 1.0 3.0 0.00 0.00 0.00 52 1005.6
20260504010055 65 235 1.0 3.0 0.00 0.00 0.00 52 1005.6
20260504005549 65 236 1.0 4.0 0.00 0.00 0.00 51 1005.5
20260504005044 65 237 1.0 5.0 0.00 0.00 0.00 50 1005.6
20260504004554 66 235 1.0 6.0 0.00 0.00 0.00 50 1005.6
20260504004042 66 240 2.0 6.0 0.00 0.00 0.00 49 1005.7
20260504003541 67 239 2.0 5.0 0.00 0.00 0.00 48 1005.7
20260504003100 67 243 2.0 5.0 0.00 0.00 0.00 48 1005.7
20260504002542 67 294 2.0 9.0 0.00 0.00 0.00 47 1005.7
20260504002041 67 223 3.0 11.0 0.00 0.00 0.00 47 1005.7
20260504001605 68 266 5.0 11.0 0.00 0.00 0.00 46 1005.7
20260504001043 68 267 4.0 11.0 0.00 0.00 0.00 46 1005.6
20260504000542 68 236 5.0 10.0 0.00 0.00 0.00 45 1005.6
20260504000115 68 239 4.0 9.0 0.00 0.00 0.00 45 1005.7
20260503235542 68 279 3.0 14.0 0.00 0.00 0.00 45 1005.8
20260503235045 68 282 4.0 14.0 0.00 0.00 0.00 45 1005.7
20260503234556 68 255 5.0 14.0 0.00 0.00 0.00 45 1005.7
20260503234042 68 227 5.0 12.0 0.00 0.00 0.00 45 1005.6
20260503233542 68 266 7.0 13.0 0.00 0.00 0.00 45 1005.6
20260503233050 68 242 6.0 14.0 0.00 0.00 0.00 45 1005.6
20260503232541 68 290 8.0 14.0 0.00 0.00 0.00 45 1005.7
20260503232041 68 244 5.0 15.0 0.00 0.00 0.00 45 1005.8
20260503231551 68 251 6.0 15.0 0.00 0.00 0.00 45 1005.7
20260503231043 68 233 4.0 15.0 0.00 0.00 0.00 45 1005.8
20260503230544 68 238 6.0 13.0 0.00 0.00 0.00 44 1005.7
20260503230053 68 242 6.0 15.0 0.00 0.00 0.00 44 1005.9
20260503225545 68 226 7.0 15.0 0.00 0.00 0.00 44 1005.9
20260503225042 68 263 9.0 15.0 0.00 0.00 0.00 44 1005.9
20260503224552 68 230 7.0 15.0 0.00 0.00 0.00 45 1005.9
20260503224048 68 211 5.0 12.0 0.00 0.00 0.00 46 1006.0
20260503223547 68 221 5.0 10.0 0.00 0.00 0.00 45 1006.0
20260503223051 68 246 4.0 16.0 0.00 0.00 0.00 46 1006.0
20260503222541 67 212 7.0 16.0 0.00 0.00 0.00 45 1006.0
20260503222045 67 190 5.0 15.0 0.00 0.00 0.00 46 1006.0
20260503221557 67 200 7.0 14.0 0.00 0.00 0.00 45 1006.1
20260503221042 67 224 5.0 16.0 0.00 0.00 0.00 46 1006.1
20260503220542 67 211 5.0 17.0 0.00 0.00 0.00 46 1006.2
20260503220057 67 242 7.0 17.0 0.00 0.00 0.00 45 1006.2
20260503215541 67 223 7.0 18.0 0.00 0.00 0.00 44 1006.3
20260503215041 67 210 8.0 18.0 0.00 0.00 0.00 45 1006.3
20260503214549 67 202 4.0 15.0 0.00 0.00 0.00 46 1006.4
20260503214044 67 262 6.0 13.0 0.00 0.00 0.00 45 1006.5
20260503213543 66 220 7.0 16.0 0.00 0.00 0.00 45 1006.5
20260503213053 66 238 6.0 16.0 0.00 0.00 0.00 46 1006.6
20260503212544 66 198 7.0 19.0 0.00 0.00 0.00 45 1006.6
20260503212044 66 225 7.0 19.0 0.00 0.00 0.00 45 1006.6
20260503211550 66 232 8.0 17.0 0.00 0.00 0.00 45 1006.8
20260503211044 66 227 7.0 19.0 0.00 0.00 0.00 45 1006.9
20260503210541 66 236 6.0 19.0 0.00 0.00 0.00 45 1006.9
20260503210048 65 217 8.0 16.0 0.00 0.00 0.00 45 1007.0
20260503205544 65 242 9.0 20.0 0.00 0.00 0.00 45 1007.0
20260503205042 65 213 11.0 20.0 0.00 0.00 0.00 45 1007.2
20260503204551 65 214 11.0 19.0 0.00 0.00 0.00 45 1007.4
20260503204041 64 213 8.0 18.0 0.00 0.00 0.00 47 1007.4
20260503203545 63 213 8.0 18.0 0.00 0.00 0.00 46 1007.5
20260503203047 63 226 8.0 18.0 0.00 0.00 0.00 46 1007.6
20260503202545 64 215 6.0 21.0 0.00 0.00 0.00 45 1007.7
20260503202042 64 197 5.0 21.0 0.00 0.00 0.00 46 1007.8
20260503201548 64 232 9.0 19.0 0.00 0.00 0.00 44 1008.0
20260503201044 64 290 8.0 19.0 0.00 0.00 0.00 47 1008.0
20260503200541 64 215 6.0 18.0 0.00 0.00 0.00 50 1008.0
20260503200057 64 223 4.0 17.0 0.00 0.00 0.00 53 1008.1
20260503195544 63 234 6.0 17.0 0.00 0.00 0.00 52 1008.2
20260503195044 63 233 6.0 17.0 0.00 0.00 0.00 53 1008.3
20260503194551 62 225 8.0 22.0 0.00 0.00 0.00 53 1008.5
20260503194042 62 197 10.0 22.0 0.00 0.00 0.00 54 1008.6
20260503193543 61 235 6.0 21.0 0.00 0.00 0.00 55 1008.9
20260503193117 61 219 8.0 15.0 0.00 0.00 0.00 56 1008.8
20260503192546 61 224 6.0 16.0 0.00 0.00 0.00 56 1008.9
20260503192049 60 200 6.0 16.0 0.00 0.00 0.00 56 1008.9
20260503191603 60 186 6.0 15.0 0.00 0.00 0.00 58 1008.8
20260503191046 60 181 6.0 15.0 0.00 0.00 0.00 57 1008.9
20260503190545 60 183 6.0 14.0 0.00 0.00 0.00 57 1009.0
20260503190053 59 213 5.0 11.0 0.00 0.00 0.00 58 1009.0
20260503185545 59 168 6.0 15.0 0.00 0.00 0.00 57 1009.0
20260503185042 59 192 6.0 15.0 0.00 0.00 0.00 58 1009.1
20260503184551 59 200 6.0 14.0 0.00 0.00 0.00 56 1009.3
20260503184047 58 206 5.0 16.0 0.00 0.00 0.00 58 1009.4
20260503183547 58 232 6.0 16.0 0.00 0.00 0.00 57 1009.4
20260503183107 57 217 6.0 16.0 0.00 0.00 0.00 57 1009.5
20260503182547 57 164 6.0 12.0 0.00 0.00 0.00 58 1009.6
20260503182047 57 200 5.0 14.0 0.00 0.00 0.00 58 1009.7
20260503181618 57 208 6.0 14.0 0.00 0.00 0.00 59 1009.9
20260503181047 57 239 5.0 10.0 0.00 0.00 0.00 61 1010.0
20260503180547 56 180 5.0 12.0 0.00 0.00 0.00 62 1010.2
20260503180051 56 163 5.0 12.0 0.00 0.00 0.00 63 1010.3
20260503175547 56 158 4.0 15.0 0.00 0.00 0.00 63 1010.3
20260503175048 55 226 7.0 15.0 0.00 0.00 0.00 63 1010.4
20260503174554 55 172 4.0 10.0 0.00 0.00 0.00 65 1010.7
20260503174046 55 231 3.0 12.0 0.00 0.00 0.00 64 1010.9
20260503173546 55 167 7.0 15.0 0.00 0.00 0.00 64 1011.0
20260503173056 55 175 5.0 15.0 0.00 0.00 0.00 66 1011.1
20260503172548 55 217 7.0 15.0 0.00 0.00 0.00 65 1011.4
20260503172048 55 210 5.0 13.0 0.00 0.00 0.00 66 1011.5
20260503171556 55 209 7.0 13.0 0.00 0.00 0.00 67 1011.9
20260503171047 54 181 5.0 16.0 0.00 0.00 0.00 70 1011.9
20260503170547 53 219 6.0 18.0 0.00 0.00 0.00 70 1011.9
20260503150546 53 271 6.0 15.0 0.00 0.00 0.00 65 1013.6
20260503131045 48 259 4.0 10.0 0.00 0.00 0.00 65 1014.4
20260503130545 48 245 5.0 10.0 0.00 0.00 0.00 65 1014.3
20260503110545 46 232 5.0 14.0 0.00 0.00 0.00 66 1013.7
20260503100106 45 225 5.0 9.0 0.00 0.00 0.00 64 1014.0
20260503081552 45 246 3.0 7.0 0.00 0.00 0.00 61 1014.5
20260503081042 45 233 2.0 7.0 0.00 0.00 0.00 61 1014.6
20260503080549 45 236 3.0 7.0 0.00 0.00 0.00 61 1014.5
20260503072546 44 229 2.0 5.0 0.00 0.00 0.00 62 1014.6
20260503072046 44 245 2.0 5.0 0.00 0.00 0.00 62 1014.6
20260503071558 44 236 2.0 5.0 0.00 0.00 0.00 61 1014.7
20260503071045 44 225 3.0 5.0 0.00 0.00 0.00 61 1014.7
20260503070546 45 233 2.0 5.0 0.00 0.00 0.00 61 1014.7
20260503070111 45 234 2.0 5.0 0.00 0.00 0.00 61 1014.8
20260503060114 45 236 2.0 5.0 0.00 0.00 0.00 59 1015.3
20260503055044 45 228 2.0 5.0 0.00 0.00 0.00 59 1015.4
20260503054549 45 230 2.0 5.0 0.00 0.00 0.00 59 1015.3